N2NET Weather Reports


Display with metric or nautical units.
time (UTC)temp
F
wind
direction
speed
MPH
gust
MPH
rain 1hr
in
rain 24hr
in
rain mn
in
humidity
%
barometer
mb
20260507130104 46 346 3.0 8.0 0.00 0.49 0.00 55 1010.7
20260507124606 46 327 4.0 11.0 0.00 0.49 0.00 53 1010.6
20260507123056 46 299 3.0 8.0 0.00 0.49 0.00 50 1010.6
20260507121559 45 349 1.0 10.0 0.00 0.49 0.00 53 1010.6
20260507114610 45 309 3.0 9.0 0.00 0.49 0.00 54 1010.3
20260507113055 43 337 2.0 6.0 0.00 0.49 0.00 58 1010.3
20260507111558 43 0 1.0 11.0 0.00 0.49 0.00 60 1010.4
20260507110054 42 0 1.0 4.0 0.00 0.49 0.00 62 1010.1
20260507104604 43 37 1.0 6.0 0.00 0.49 0.00 64 1010.1
20260507103100 43 57 2.0 4.0 0.00 0.49 0.00 66 1010.0
20260507101603 44 108 2.0 15.0 0.00 0.49 0.00 67 1009.6
20260507100052 44 319 0.0 9.0 0.00 0.49 0.00 71 1009.5
20260507094558 45 299 2.0 11.0 0.00 0.49 0.00 72 1009.1
20260507093054 45 315 1.0 5.0 0.00 0.49 0.00 60 1009.1
20260507091553 45 0 0.0 3.0 0.00 0.49 0.00 54 1009.1
20260507084550 45 287 0.0 4.0 0.00 0.49 0.00 63 1009.4
20260507083056 45 320 2.0 4.0 0.00 0.49 0.00 65 1009.5
20260507081553 45 215 3.0 9.0 0.00 0.49 0.00 66 1009.5
20260507080059 46 304 0.0 2.0 0.00 0.49 0.00 67 1009.7
20260507074555 46 75 0.0 5.0 0.00 0.49 0.00 68 1009.6
20260507073104 46 0 0.0 6.0 0.00 0.49 0.00 61 1009.9
20260507071549 46 264 2.0 4.0 0.00 0.49 0.00 59 1009.4
20260507070101 46 323 1.0 4.0 0.00 0.49 0.00 47 1009.2
20260507064556 46 0 0.0 3.0 0.00 0.49 0.00 54 1008.6
20260507063054 46 235 1.0 4.0 0.00 0.49 0.00 51 1008.8
20260507061554 47 297 2.0 4.0 0.00 0.49 0.00 37 1008.6
20260507060059 47 245 1.0 2.0 0.00 0.49 0.00 26 1008.7
20260507054551 47 276 0.0 3.0 0.00 0.49 0.00 28 1008.8
20260507053058 47 236 1.0 4.0 0.00 0.49 0.00 35 1009.0
20260507051549 47 201 1.0 2.0 0.00 0.49 0.00 32 1009.0
20260507050054 48 261 1.0 4.0 0.00 0.49 0.00 33 1009.0
20260507044600 48 262 1.0 3.0 0.00 0.49 0.00 36 1009.5
20260507043051 48 276 1.0 4.0 0.00 0.49 0.00 30 1009.3
20260507041553 49 266 1.0 7.0 0.00 0.49 0.00 31 1009.3
20260507040056 49 283 2.0 5.0 0.00 0.49 0.00 43 1009.3
20260507034553 49 307 1.0 3.0 0.00 0.49 0.49 44 1009.0
20260507033102 49 228 1.0 4.0 0.00 0.49 0.49 51 1008.9
20260507031601 49 0 0.0 2.0 0.00 0.49 0.49 52 1008.9
20260507030108 49 231 0.0 5.0 0.00 0.49 0.49 54 1009.1
20260507024607 50 245 1.0 7.0 0.00 0.49 0.49 42 1009.1
20260507023052 50 0 0.0 3.0 0.00 0.49 0.49 47 1009.2
20260507021557 50 233 3.0 9.0 0.00 0.49 0.49 50 1009.0
20260507020104 50 248 2.0 8.0 0.00 0.49 0.49 46 1009.1
20260507014559 51 228 1.0 4.0 0.00 0.49 0.49 47 1009.2
20260507013100 51 231 0.0 7.0 0.00 0.49 0.49 51 1008.9
20260507011553 51 219 2.0 5.0 0.00 0.49 0.49 27 1008.7
20260507004556 52 300 1.0 6.0 0.00 0.49 0.49 25 1008.3
20260507003106 53 200 2.0 6.0 0.00 0.49 0.49 29 1008.1
20260507001550 53 281 2.0 5.0 0.00 0.49 0.49 7 1008.1
20260507000057 54 229 1.0 8.0 0.00 0.49 0.49 100 1007.7
20260506234604 54 201 2.0 6.0 0.00 0.49 0.49 100 1007.5
20260506233059 55 225 4.0 9.0 0.02 0.49 0.49 100 1007.1
20260506231556 56 315 1.0 8.0 0.02 0.49 0.49 100 1007.0
20260506224602 56 320 11.0 20.0 0.03 0.49 0.49 100 1006.1
20260506223052 58 0 0.0 0.0 0.01 0.47 0.47 100 1005.2
20260506221552 58 0 0.0 0.0 0.01 0.47 0.47 100 1005.1
20260506220054 58 0 0.0 0.0 0.00 0.46 0.46 100 1004.9
20260506214552 58 0 0.0 0.0 0.00 0.46 0.46 100 1005.0
20260506213053 58 0 0.0 0.0 0.00 0.46 0.46 100 1004.7
20260506211553 59 0 0.0 0.0 0.00 0.46 0.46 100 1004.7
20260506210049 59 0 0.0 5.0 0.00 0.46 0.46 100 1004.8
20260506204553 59 0 0.0 4.0 0.00 0.46 0.46 100 1004.6
20260506203051 59 356 2.0 3.0 0.00 0.46 0.46 100 1004.8
20260506201552 59 283 0.0 4.0 0.00 0.46 0.46 100 1004.9
20260506200050 60 300 1.0 3.0 0.00 0.46 0.46 100 1004.9
20260506194554 60 286 2.0 6.0 0.01 0.46 0.46 100 1004.9
20260506193054 60 315 0.0 3.0 0.01 0.46 0.46 100 1005.0
20260506191553 60 0 1.0 5.0 0.02 0.46 0.46 100 1005.3
20260506184558 59 155 3.0 7.0 0.03 0.45 0.45 100 1005.6
20260506183537 59 131 1.0 3.0 0.04 0.45 0.45 100 1005.5
20260506181604 59 224 0.0 4.0 0.06 0.44 0.44 100 1005.8
20260506180058 59 0 0.0 5.0 0.08 0.43 0.43 100 1006.0
20260506174555 59 139 1.0 4.0 0.10 0.42 0.42 100 1006.0
20260506173124 59 131 0.0 3.0 0.12 0.41 0.41 100 1006.1
20260506171549 59 239 1.0 6.0 0.13 0.38 0.38 100 1006.0
20260506170053 59 232 1.0 8.0 0.13 0.34 0.34 100 1006.5
20260506164556 59 0 0.0 2.0 0.13 0.32 0.32 100 1006.6
20260506163107 59 0 0.0 6.0 0.12 0.29 0.29 100 1006.8
20260506161624 59 232 0.0 1.0 0.11 0.25 0.25 100 1007.2
20260506154555 59 239 0.0 6.0 0.09 0.19 0.19 100 1007.2
20260506153058 59 326 0.0 3.0 0.07 0.16 0.16 100 1007.3
20260506151558 59 0 0.0 3.0 0.08 0.14 0.14 100 1007.4
20260506150052 59 0 0.0 0.0 0.08 0.12 0.12 100 1007.5
20260506144551 60 0 0.0 2.0 0.08 0.10 0.10 100 1007.6
20260506143053 60 360 0.0 2.0 0.09 0.09 0.09 100 1007.6
20260506141556 60 0 0.0 3.0 0.06 0.06 0.06 100 1007.9
20260506140053 60 339 1.0 3.0 0.04 0.04 0.04 100 1008.1
20260506134549 61 248 1.0 7.0 0.02 0.02 0.02 43 1008.0
20260506133053 62 212 1.0 5.0 0.00 0.00 0.00 62 1007.7
20260506131552 63 162 2.0 10.0 0.00 0.00 0.00 72 1007.3